Regional Weather Roundup
Issued by NWS

Home | Current Version | Previous Version | Text Only | Print | Product List | Glossary On
Versions: 1 2 3 4 5 6 7 8 9 10 11 12 13 14 15 16 17 18 19 20 21 22 23 24 25 26 27 28 29 30 31 32 33 34 35 36 37 38 39 40 41 42 43 44 45 46 47 48 49 50
000
ASUS44 KBMX 032210
RWRAL

ALABAMA REGIONAL WEATHER ROUNDUP
NATIONAL WEATHER SERVICE BIRMINGHAM AL
500 PM CDT FRI JUL 03 2015

NOTE: "FAIR" INDICATES FEW OR NO CLOUDS BELOW 12,000 FEET
WITH NO SIGNIFICANT WEATHER AND/OR OBSTRUCTIONS TO VISIBILITY.

THE REMARK "TC" DENOTES TEMPERATURE IN DEGREES CELSIUS.

ALZ001>011-014-016>018-020-032300-
NORTH ALABAMA

CITY           SKY/WX    TMP DP  RH WIND       PRES   REMARKS
MUSCLE SHOALS  LGT RAIN  72  69  90 SW6       29.99F
HUNTSVILLE     LGT RAIN  73  70  90 SW9       29.99S
DECATUR        LGT RAIN  72  68  87 W10       30.00S
HALEYVILLE     LGT RAIN  71  69  93 CALM      30.04F
GADSDEN        CLOUDY    84  64  51 W9        29.99F
$$

ALZ012-013-022-023-030>036-040>044-032300-
WEST CENTRAL ALABAMA

CITY           SKY/WX    TMP DP  RH WIND       PRES   REMARKS
TUSCALOOSA     LGT RAIN  83  70  64 N10       29.98F
$$

ALZ015-024>027-033>036-040>044-032300-
CENTRAL ALABAMA

CITY           SKY/WX    TMP DP  RH WIND       PRES   REMARKS
BIRMINGHAM     CLOUDY    78  69  73 NW8       30.03F
MONTGOMERY     PTSUNNY   89  72  56 SW5       29.99F HX  96
SHELBY CO ARPT LGT RAIN  78  75  90 W3        30.02S FOG
MAXWELL AFB    PTSUNNY   87  73  61 W3        29.99  HX  94
GREENVILLE     FAIR      88  72  58 W6        30.00F HX  94
$$

ALZ019-021-028-029-037-038-045>048-032300-
EAST CENTRAL ALABAMA

CITY           SKY/WX    TMP DP  RH WIND       PRES   REMARKS
ANNISTON       CLOUDY    78  70  76 SW5       30.01F
ALEXANDER CITY CLOUDY    81  69  65 W5        30.02F
AUBURN         CLOUDY    82  63  51 SW8       30.04F
$$

ALZ051>064-032300-
SOUTHWEST ALABAMA

CITY           SKY/WX    TMP DP  RH WIND       PRES   REMARKS
MOBILE         MOSUNNY   89  75  63 SW10      30.02F HX  99
BROOKLEY FIELD MOSUNNY   89  75  63 SW8       30.03F HX  99
EVERGREEN      PTSUNNY   90  72  55 SW6       30.00F HX  97
$$

ALZ049-050-065>069-032300-
SOUTHEAST ALABAMA

CITY           SKY/WX    TMP DP  RH WIND       PRES   REMARKS
DOTHAN         MOSUNNY   91  69  48 SW9       30.05F HX  96
OZARK          MOSUNNY   92  73  53 SW9       30.01F HX 100
TROY           MOSUNNY   91  72  53 W10G16    30.02F HX  98
EUFAULA        PTSUNNY   84  66  54 NW14G28   30.02R THUNDER
$$



USA.gov is the U.S. government's official web portal to all federal, state and local government web resources and services.